Weather History for Belize, Belize

Change the Weather History Date:

Sunday, May 26, 2013

  Actual Average Record
Temperature  
Mean Temperature 83 °F -  
Max Temperature 87 °F 89 °F 95 °F (2007)
Min Temperature 79 °F 77 °F 75 °F (1998)
Cooling Degree Days 18    
Growing Degree Days 33 (Base 50)    
Moisture  
Dew Point 76 °F    
Average Humidity 78    
Maximum Humidity 94    
Minimum Humidity 63    
Precipitation  
Precipitation 0.12 in 0.31 in - ()
Sea Level Pressure  
Sea Level Pressure 29.96 in    
Wind  
Wind Speed 10 mph ()    
Max Wind Speed 15 mph    
Max Gust Speed -    
Visibility 8.1 miles    
Events Rain , Thunderstorm    
Averages and records for this station are not official NWS values.
T = Trace of Precipitation, MM = Missing Value Source: Averaged Metar Reports

Daily Weather History Graph

Daily Weather History Graph

Search for Another Location

Airport:

Trip Planner

Search our weather history database for the weather conditions in past years. The results will help you decide how hot, cold, wet, or windy it might be!

Date:

Astronomy

May. 26, 2013 Rise Set
Actual Time 5:18 AM CST 6:22 PM CST
Civil Twilight 4:54 AM CST 6:46 PM CST
Nautical Twilight 4:26 AM CST 7:14 PM CST
Astronomical Twilight 3:58 AM CST 7:42 PM CST
Moon 8:13 PM CST (5/26) 6:45 AM CST (5/26)
Length of Visible Light 13h 51m
Length of Day
13h 04m
Waning Gibbous, 96% of the Moon is Illuminated
May 26
Waning Gibbous
May 31
Last Quarter
Jun 8
New
Jun 16
First Quarter
Jun 23
Full

Hourly Weather History & Observations

Time (CST) Temp. Heat Index Dew Point Humidity Pressure Visibility Wind Dir Wind Speed Gust Speed Precip Events Conditions
12:00 AM 82 °F - 76 °F 76% 29.98 in 12 mi East 15.0 mph - - Rain Light Rain Showers
3:00 AM 81 °F - 75 °F 78% 29.94 in 12 mi East 15.0 mph - -   Mostly Cloudy
5:00 AM 80.6 °F 86.2 °F 75.2 °F 84% 29.95 in 6.2 mi East 11.5 mph - N/A   Mostly Cloudy
6:00 AM 81 °F - 76 °F 82% 29.97 in 12 mi Calm Calm - -   Mostly Cloudy
6:00 AM 80.6 °F 87.1 °F 77.0 °F 89% 29.95 in 6.2 mi Calm Calm - N/A   Mostly Cloudy
7:00 AM 82.4 °F 89.5 °F 75.2 °F 79% 29.98 in 6.2 mi East 13.8 mph - N/A   Mostly Cloudy
8:00 AM 84.2 °F 94.1 °F 77.0 °F 79% 29.98 in 6.2 mi East 13.8 mph - N/A   Mostly Cloudy
9:00 AM 85 °F - 76 °F 69% 30.00 in 12 mi East 10.4 mph - -   Mostly Cloudy
9:00 AM 86.0 °F 96.9 °F 77.0 °F 74% 30.00 in 6.2 mi East 10.4 mph - N/A   Mostly Cloudy
10:00 AM 86.0 °F 96.9 °F 77.0 °F 74% 29.99 in 6.2 mi East 11.5 mph - N/A   Mostly Cloudy
11:00 AM 86.0 °F 96.9 °F 77.0 °F 74% 29.99 in 6.2 mi East 11.5 mph - N/A   Mostly Cloudy
12:00 PM 87 °F - 76 °F 63% 29.98 in 12 mi ENE 13.8 mph - -   Mostly Cloudy
12:00 PM 87.8 °F 99.7 °F 77.0 °F 70% 29.97 in 6.2 mi ENE 13.8 mph - N/A   Mostly Cloudy
1:00 PM 86.0 °F 95.1 °F 75.2 °F 70% 29.96 in 6.2 mi ENE 13.8 mph - N/A   Mostly Cloudy
2:00 PM 86.0 °F 96.9 °F 77.0 °F 74% 29.94 in 6.2 mi ENE 12.7 mph - N/A   Mostly Cloudy
3:00 PM 85 °F - 76 °F 69% 29.93 in 12 mi ENE 13.8 mph - -   Mostly Cloudy
3:00 PM 86.0 °F 96.9 °F 77.0 °F 74% 29.92 in 6.2 mi ENE 13.8 mph - N/A   Mostly Cloudy
4:00 PM 80.6 °F 88.1 °F 78.8 °F 94% 29.91 in 6.2 mi ENE 8.1 mph - N/A   Mostly Cloudy
5:00 PM 82.4 °F 89.5 °F 75.2 °F 79% 29.91 in 6.2 mi ENE 12.7 mph - N/A Rain Light Rain Showers
5:20 PM 82.4 °F 89.5 °F 75.2 °F 79% 29.92 in 6.2 mi ENE 12.7 mph - N/A Thunderstorm Thunderstorm
6:00 PM 81 °F - 77 °F 83% 29.94 in 9 mi ESE 9.2 mph - - Rain Light Rain Showers
6:00 PM 80.6 °F 87.1 °F 77.0 °F 89% 29.93 in 6.2 mi ESE 9.2 mph - N/A Rain Light Rain Showers
9:00 PM 80 °F - 75 °F 81% 29.99 in 12 mi ENE 10.4 mph - - Rain , Thunderstorm Thunderstorms and Rain